Location: F?ge?el
(45.8833°N, 22.5833°E)
Time: 13:03:02
(UTC+00:00)

SJ 16-02 - Pass Details

Date: 17 November 2025
Orbit: 585 x 594 km, 75.0° (Epoch: 06 December)

Event Time Altitude Azimuth Distance (km) Brightness Sun altitude
Rises 18:09:42 0° 239° (WSW) 2,828 5.4 -33.5°
Reaches altitude 10° 18:12:29 10° 258° (WSW) 1,931 4.6 -34.0°
Enters shadow 18:15:17 19° 299° (WNW) 1,458 3.8 -34.5°
